Regional Weather Roundup
Issued by NWS

Home | Current Version | Previous Version | Graphics & Text | Print | Product List | Glossary On
Versions: 1 2 3 4 5 6 7 8 9 10 11 12 13 14 15 16 17 18 19 20 21 22 23 24 25 26 27 28 29 30 31 32 33 34 35 36 37 38 39 40 41 42 43 44 45 46 47 48 49 50
000
ASUS43 KDMX 240801
RWRIA

WEATHER ROUNDUP FOR IOWA
NATIONAL WEATHER SERVICE DES MOINES IA
300 AM CDT MON APR 24 2017

NOTE: "FAIR" INDICATES FEW OR NO CLOUDS BELOW 12,000 FEET WITH NO
SIGNIFICANT WEATHER AND/OR OBSTRUCTIONS TO VISIBILITY.

* - THESE STATIONS ARE NOT NWS STATIONS...THUS NOT UNDER NWS
QUALITY CONTROL.  THEY ALSO DO NOT REPORT WEATHER SUCH
AS PRECIPITATION OR FOG.

IAZ001>003-012>014-020>022-031>034-043>046-240900-
   NORTHWEST IOWA

CITY           SKY/WX    TMP DP  RH WIND       PRES   REMARKS
CARROLL *      CLOUDY    50  36  57 S9        29.86F
CHEROKEE *     MOCLDY    49  35  58 S8        29.82F
DENISON *      CLOUDY    52  34  50 S13       29.85F
LE MARS *      CLOUDY    54  34  47 S12G18    29.79F
ORANGE CITY *  CLOUDY    50  36  57 S8        29.79F
SHELDON *      PTCLDY    50  34  53 S14       29.78F
SIOUX CITY     MOCLDY    49  36  61 SE12      29.79F
SPENCER        CLOUDY    50  34  54 MISG      29.81F
STORM LAKE *   CLOUDY    46  34  61 S10       29.84S
$$

IAZ055>058-069>071-079>083-090>094-240900-
   SOUTHWEST IOWA

CITY           SKY/WX    TMP DP  RH WIND       PRES   REMARKS
ATLANTIC *     CLOUDY    50  36  57 S10       29.87F
AUDUBON *      CLOUDY    48  36  61 S6        29.88F
CLARINDA *     CLOUDY    41  36  81 SW3       29.92F
COUNCIL BLFS * MOCLDY    50  37  62 S8        29.85F
CRESTON *      CLOUDY    46  34  61 S8        29.92F
HARLAN  *      MOCLDY    52  36  54 S13       29.88F
LAMONI         CLOUDY    51  32  48 S6        29.92F
RED OAK *      CLOUDY    48  36  61 S7        29.88F
SHENANDOAH *   CLOUDY    48  37  66 SE8       29.88F
$$

IAZ047>049-059>061-072>074-084-240900-
   CENTRAL IOWA

CITY           SKY/WX    TMP DP  RH WIND       PRES   REMARKS
AMES           CLOUDY    45  36  70 SE5       29.90F
ANKENY *       CLOUDY    46  36  66 S5        29.92F
BOONE *        CLOUDY    46  34  61 S7        29.89F
CHARITON *     CLOUDY    48  34  57 S6        29.93F
DES MOINES     MOCLDY    50  33  52 S7        29.92F
GRINNELL*      CLOUDY    47  32  56 S7        29.95S HAZE
KNOXVILLE *    CLOUDY    50  32  50 S6        29.92S
MARSHALLTOWN   CLEAR     49  33  54 S7        29.92F
NEWTON *       CLOUDY    45  32  61 S7        29.92F
PELLA *        CLOUDY    48  34  57 SE3       29.94F
PERRY *          N/A     44  33  64 SE7       29.90F
$$

IAZ004>006-015-016-023>025-035-036-240900-
   NORTH CENTRAL IOWA

CITY           SKY/WX    TMP DP  RH WIND       PRES   REMARKS
ALGONA *       MOCLDY    48  36  61 S9        29.86F
CLARION *      CLOUDY    50  34  53 S12       29.88F
ESTHERVILLE    CLOUDY    46  35  65 S9        29.82F
FORT DODGE *   CLOUDY    54  30  40 S10       29.88F
MASON CITY     PTCLDY    43  34  70 S8        29.90F
FOREST CITY *    N/A     43  36  75 S8        29.88F
WEBSTER CITY * CLOUDY    48  34  57 SE10      29.87F
IOWA FALLS *     N/A     50  35  56 S10       29.92F
$$

IAZ007>011-017>019-026>030-037>042-050>054-066-240900-
   NORTHEAST IOWA

CITY           SKY/WX    TMP DP  RH WIND       PRES   REMARKS
CEDAR RAPIDS   CLEAR     48  32  53 SE3       29.94F
CHARLES CITY * CLEAR     48  32  53 S9        29.92F
CLINTON *      CLEAR     49  35  58 SE5       29.98F
DECORAH *      CLEAR     52  32  46 S7        29.92F
DUBUQUE        CLEAR     49  33  54 S3        29.97F
MONTICELLO *   CLEAR     46  34  61 E3        29.95F
OELWEIN *      CLEAR     46  36  66 SE8       29.94F
WATERLOO       CLEAR     52  32  46 S9        29.92F
$$

IAZ064-065-067-068-078-240900-
   EAST CENTRAL IOWA

CITY           SKY/WX    TMP DP  RH WIND       PRES   REMARKS
DAVENPORT      CLEAR     47  32  56 SE5       29.97F
IOWA CITY      CLEAR     45  35  68 CALM      29.96F
MT. PLEASANT * CLOUDY    47  31  52 SE3       29.95F
MUSCATINE *    CLOUDY    43  36  75 CALM      29.96F
QUAD CITIES    CLEAR     41  35  79 CALM      29.97F
$$

IAZ062-063-075>077-085>089-095>099-240900-
   SOUTHEAST IOWA

CITY           SKY/WX    TMP DP  RH WIND       PRES   REMARKS
BURLINGTON     CLOUDY    48  34  58 SE3       29.96F
FAIRFIELD *    CLOUDY    48  28  46 SE7       29.94F
FORT MADISON * CLOUDY    55  28  35 S5        29.97F
KEOKUK *       CLOUDY    46  37  71 CALM      29.95F
OSKALOOSA *      N/A     47  32  55 S7        29.94F
CENTERVILLE *    N/A     46  32  57 CALM      29.95F
OTTUMWA        CLOUDY    47  31  53 S9        29.94F
$$

ABBREVIATIONS USED IN REMARKS
   TC - TEMPERATURES IN CELSIUS
  WCI - WIND CHILL INDEX
   HX - HEAT INDEX
  VSB - VISIBILITY
$$




USA.gov is the U.S. government's official web portal to all federal, state and local government web resources and services.